When you browse on this site, cookies collect data to enhance your experience and personalize the content and advertising you see.
Visit our Privacy Policy to learn more. By continuing to use the site, you agree to this use of cookies and data.
  • în România
  • Lista ţărilor
  • Pe 7 zile
  • Temperatura apei
  • Hartă satelitară
  • Meteo pe hartă
  • Widget-uri
  • user-avatar
    Intrare

    Meteo pe oră la Barlinek

    Astăzi, 21 Martie, Joi

    Timp Temperatura Precipitaţii Vânt Presiune Umiditate
    00:00 +8°C° 0 mm 3 m/s 767 mmHg 87%
    01:00 +7°C° 0 mm 2 m/s 767 mmHg 92%
    02:00 +7°C° 0 mm 2 m/s 767 mmHg 93%
    03:00 +7°C° 0 mm 3 m/s 767 mmHg 95%
    04:00 +5°C° 0 mm 3 m/s 767 mmHg 96%
    05:00 +5°C° 0 mm 3 m/s 767 mmHg 97%
    06:00 +5°C° 0 mm 3 m/s 768 mmHg 97%
    07:00 +5°C° 0 mm 3 m/s 768 mmHg 97%
    08:00 +7°C° 0 mm 3 m/s 768 mmHg 91%
    09:00 +8°C° 0 mm 4 m/s 768 mmHg 86%
    10:00 +9°C° 0 mm 5 m/s 768 mmHg 80%
    11:00 +11°C° 0 mm 4 m/s 768 mmHg 79%
    12:00 +11°C° 0 mm 4 m/s 768 mmHg 77%
    13:00 +12°C° 0 mm 4 m/s 768 mmHg 76%
    14:00 +12°C° 0 mm 4 m/s 767 mmHg 76%
    15:00 +12°C° 0 mm 4 m/s 767 mmHg 75%
    16:00 +13°C° 0 mm 4 m/s 767 mmHg 75%
    17:00 +12°C° 0 mm 3 m/s 767 mmHg 79%
    18:00 +11°C° 0 mm 3 m/s 767 mmHg 84%
    19:00 +10°C° 0 mm 3 m/s 767 mmHg 88%
    20:00 +10°C° 0 mm 3 m/s 767 mmHg 90%
    21:00 +9°C° 0 mm 3 m/s 767 mmHg 91%
    22:00 +9°C° 0 mm 3 m/s 767 mmHg 93%
    23:00 +9°C° 0 mm 2 m/s 767 mmHg 94%

    Mâine, 22 Martie, Vineri

    Timp Temperatura Precipitaţii Vânt Presiune Umiditate
    00:00 +8°C° 0 mm 2 m/s 768 mmHg 95%
    01:00 +8°C° 0 mm 2 m/s 768 mmHg 96%
    02:00 +7°C° 0 mm 2 m/s 768 mmHg 96%
    03:00 +7°C° 0 mm 2 m/s 768 mmHg 97%
    04:00 +7°C° 0 mm 2 m/s 768 mmHg 97%
    05:00 +8°C° 0 mm 1 m/s 768 mmHg 96%
    06:00 +8°C° 0 mm 1 m/s 768 mmHg 96%
    07:00 +8°C° 0 mm 0 m/s 768 mmHg 95%
    08:00 +8°C° 0 mm 0 m/s 768 mmHg 92%
    09:00 +9°C° 0 mm 0 m/s 769 mmHg 89%
    10:00 +9°C° 0 mm 0 m/s 769 mmHg 87%
    11:00 +10°C° 0 mm 0 m/s 768 mmHg 84%
    12:00 +12°C° 0 mm 1 m/s 768 mmHg 81%
    13:00 +12°C° 0 mm 1 m/s 768 mmHg 78%
    14:00 +13°C° 0 mm 1 m/s 768 mmHg 76%
    15:00 +14°C° 0 mm 1 m/s 767 mmHg 74%
    16:00 +14°C° 0 mm 1 m/s 767 mmHg 71%
    17:00 +13°C° 0 mm 2 m/s 766 mmHg 77%
    18:00 +12°C° 0 mm 2 m/s 766 mmHg 82%
    19:00 +10°C° 0 mm 2 m/s 766 mmHg 88%
    20:00 +9°C° 0 mm 2 m/s 766 mmHg 90%
    21:00 +9°C° 0 mm 3 m/s 766 mmHg 92%
    22:00 +8°C° 0 mm 3 m/s 766 mmHg 93%
    23:00 +8°C° 0 mm 3 m/s 765 mmHg 94%

    Poimâine, 23 Martie, Sâmbătă

    Timp Temperatura Precipitaţii Vânt Presiune Umiditate
    00:00 +8°C° 0 mm 2 m/s 765 mmHg 94%
    01:00 +8°C° 0 mm 2 m/s 765 mmHg 95%
    02:00 +8°C° 0 mm 2 m/s 764 mmHg 95%
    03:00 +8°C° 0 mm 2 m/s 764 mmHg 95%
    04:00 +7°C° 0 mm 2 m/s 763 mmHg 95%
    05:00 +8°C° 0 mm 2 m/s 763 mmHg 94%
    06:00 +8°C° 0 mm 2 m/s 763 mmHg 94%
    07:00 +8°C° 0 mm 2 m/s 763 mmHg 93%
    08:00 +10°C° 0 mm 2 m/s 763 mmHg 85%
    09:00 +13°C° 0 mm 2 m/s 763 mmHg 77%
    10:00 +14°C° 0 mm 3 m/s 763 mmHg 69%
    11:00 +16°C° 0 mm 3 m/s 763 mmHg 65%
    12:00 +18°C° 0 mm 3 m/s 763 mmHg 62%
    13:00 +19°C° 0 mm 3 m/s 762 mmHg 58%
    14:00 +18°C° 0.1 mm 4 m/s 762 mmHg 62%
    15:00 +16°C° 0.1 mm 5 m/s 762 mmHg 66%
    16:00 +15°C° 0.1 mm 6 m/s 762 mmHg 69%
    17:00 +13°C° 0 mm 5 m/s 763 mmHg 73%
    18:00 +10°C° 0 mm 5 m/s 763 mmHg 77%
    19:00 +8°C° 0 mm 5 m/s 764 mmHg 80%
    20:00 +7°C° 0 mm 5 m/s 764 mmHg 74%
    21:00 +6°C° 0 mm 5 m/s 765 mmHg 68%
    22:00 +5°C° 0 mm 4 m/s 765 mmHg 62%
    23:00 +4°C° 0 mm 4 m/s 766 mmHg 63%

    24 Martie, Duminică

    Timp Temperatura Precipitaţii Vânt Presiune Umiditate
    00:00 +4°C° 0 mm 4 m/s 766 mmHg 64%
    01:00 +3°C° 0 mm 3 m/s 766 mmHg 65%
    02:00 +3°C° 0 mm 3 m/s 766 mmHg 67%
    03:00 +3°C° 0 mm 2 m/s 766 mmHg 70%
    04:00 +3°C° 0 mm 2 m/s 766 mmHg 72%
    05:00 +3°C° 0 mm 2 m/s 766 mmHg 73%
    06:00 +3°C° 0 mm 2 m/s 766 mmHg 73%
    07:00 +3°C° 0 mm 2 m/s 766 mmHg 73%
    08:00 +4°C° 0 mm 2 m/s 766 mmHg 68%
    09:00 +5°C° 0 mm 2 m/s 766 mmHg 62%
    10:00 +7°C° 0 mm 2 m/s 766 mmHg 56%
    11:00 +9°C° 0 mm 1 m/s 765 mmHg 52%
    12:00 +9°C° 0 mm 1 m/s 764 mmHg 47%
    13:00 +10°C° 0 mm 1 m/s 764 mmHg 42%
    14:00 +10°C° 0 mm 1 m/s 763 mmHg 42%
    15:00 +11°C° 0 mm 1 m/s 763 mmHg 41%
    16:00 +11°C° 0 mm 1 m/s 762 mmHg 41%
    17:00 +9°C° 0 mm 2 m/s 762 mmHg 46%
    18:00 +8°C° 0 mm 2 m/s 762 mmHg 50%
    19:00 +7°C° 0 mm 2 m/s 761 mmHg 55%
    20:00 +6°C° 0 mm 2 m/s 761 mmHg 60%
    21:00 +5°C° 0 mm 2 m/s 761 mmHg 65%
    22:00 +4°C° 0 mm 2 m/s 761 mmHg 71%
    23:00 +3°C° 0 mm 2 m/s 761 mmHg 71%

    25 Martie, Luni

    Timp Temperatura Precipitaţii Vânt Presiune Umiditate
    00:00 +3°C° 0 mm 2 m/s 760 mmHg 72%
    01:00 +3°C° 0 mm 1 m/s 760 mmHg 73%
    02:00 +2°C° 0 mm 2 m/s 760 mmHg 75%
    03:00 +2°C° 0 mm 2 m/s 759 mmHg 77%
    04:00 +1°C° 0 mm 2 m/s 759 mmHg 78%
    05:00 +1°C° 0 mm 3 m/s 759 mmHg 78%
    06:00 0°C° 0 mm 4 m/s 758 mmHg 78%
    07:00 0°C° 0 mm 5 m/s 758 mmHg 77%
    08:00 +2°C° 0 mm 6 m/s 757 mmHg 72%
    09:00 +3°C° 0 mm 7 m/s 756 mmHg 68%
    10:00 +5°C° 0 mm 9 m/s 756 mmHg 63%
    11:00 +5°C° 0.6 mm 9 m/s 755 mmHg 64%
    12:00 +3°C° 0.6 mm 9 m/s 755 mmHg 64%
    13:00 +3°C° 0.6 mm 9 m/s 754 mmHg 65%
    14:00 +3°C° 0.1 mm 9 m/s 754 mmHg 60%
    15:00 +3°C° 0.1 mm 9 m/s 754 mmHg 55%
    16:00 +5°C° 0.1 mm 10 m/s 754 mmHg 51%
    17:00 +3°C° 0 mm 9 m/s 754 mmHg 55%
    18:00 +2°C° 0 mm 8 m/s 754 mmHg 59%
    19:00 +2°C° 0 mm 8 m/s 754 mmHg 63%
    20:00 +1°C° 0.1 mm 8 m/s 754 mmHg 63%
    21:00 +1°C° 0.1 mm 8 m/s 754 mmHg 63%
    22:00 0°C° 0.1 mm 9 m/s 753 mmHg 63%
    23:00 0°C° 0.1 mm 9 m/s 753 mmHg 63%

    26 Martie, Marţi

    Timp Temperatura Precipitaţii Vânt Presiune Umiditate
    00:00 -1°C° 0.1 mm 8 m/s 753 mmHg 62%
    01:00 -1°C° 0.1 mm 8 m/s 753 mmHg 62%
    02:00 -1°C° 0.1 mm 8 m/s 753 mmHg 62%
    03:00 -2°C° 0.1 mm 8 m/s 753 mmHg 61%
    04:00 -2°C° 0.1 mm 8 m/s 753 mmHg 61%
    05:00 -1°C° 0 mm 8 m/s 754 mmHg 62%
    06:00 -1°C° 0 mm 8 m/s 754 mmHg 62%
    07:00 0°C° 0 mm 8 m/s 755 mmHg 63%
    08:00 0°C° 0 mm 8 m/s 756 mmHg 62%
    09:00 +1°C° 0 mm 8 m/s 756 mmHg 61%
    10:00 +2°C° 0 mm 9 m/s 757 mmHg 60%
    11:00 +2°C° 0 mm 9 m/s 757 mmHg 61%
    12:00 +2°C° 0 mm 9 m/s 758 mmHg 62%
    13:00 +3°C° 0 mm 9 m/s 759 mmHg 63%
    14:00 +4°C° 0 mm 8 m/s 760 mmHg 62%
    15:00 +4°C° 0 mm 8 m/s 760 mmHg 61%
    16:00 +4°C° 0 mm 7 m/s 761 mmHg 60%
    17:00 +3°C° 0 mm 6 m/s 761 mmHg 65%
    18:00 +2°C° 0 mm 5 m/s 762 mmHg 70%
    19:00 +2°C° 0 mm 3 m/s 763 mmHg 75%
    20:00 +2°C° 0 mm 3 m/s 763 mmHg 75%
    21:00 0°C° 0 mm 4 m/s 763 mmHg 76%
    22:00 0°C° 0 mm 4 m/s 763 mmHg 77%
    23:00 0°C° 0 mm 4 m/s 764 mmHg 78%
    Arată mai mult